User: anonymous   Login
Location: Milton Keynes
(52.0316°N, 0.7531°W)
Time: 18:16:48
(UTC+01:00)
Language:

Genesis I - Orbit

View from above orbital plane
View from above orbital plane
View from above satellite
View from above satellite

Ground track
Ground track

The orbit data is extracted from the following two-line orbital elements,

1 29252U 06029A   24107.11699470  .00027338  00000-0  78127-3 0  9999
2 29252  64.5187  15.2223 0016220 331.9569  28.0687 15.35792213981114
Epoch (UTC): 16 April 2024 02:48:28
Eccentricity: 0.0016220
inclination: 64.5187°
perigee height: 447 km
apogee height: 469 km
right ascension of ascending node: 15.2223°
argument of perigee: 331.9569°
revolutions per day: 15.35792213
mean anomaly at epoch: 28.0687°
orbit number at epoch: 98111

The dashed part of the orbit path shows where the satellite is in the earth's shadow,  

DLR